STARLINK-2734, 48657

Orbit data source: Space-Track

STARLINK-2734, 48657 is a payload satellite owned by SpaceX/Seattle (US) in LEO that was launched on Wed, 26 May 2021 UTC via an FALCON 9 launch vehicle from the Air Force Eastern Test Range (AFETR). Payload-class satellites include a variety of spacecraft equipped with specific instruments for various scientific and technological missions. These include communications satellites like Starlink; space stations such as the ISS; scientific satellites like the Hubble; Earth observation satellites from companies like Planet Labs, Umbra, and HawkEye 360; GPS; miniature CubeSats for education and research; and military/defense satellites.

Loading next visibility...
Identifier
48657, 2021-044V
Orbit
LEO
Country
Flag of USUS
Related business
Manufacturer
SpaceX/Seattle
Mission
Operational Commercial Communications
Bus & Motor
STARLINK, Unknown motor
Mass
260 kg wet, ~248 kg dry
Launch date (UTC)
2021-05-26 (5 years ago)
Launch vehicle
FALCON 9
Launch site
Air Force Eastern Test Range (AFETR)
Object type
Payload
Rocket body
Debris
Shape & HBR
Box + 1 Pan, 10.1 m
Radar Cross Section
13.562 m², Large (>1 m²)

Expand to show TLE details & history
Last TLE update: 3 days ago

TLE from 3 days ago
0 STARLINK-2734
1 48657U 21044V   26170.89885117  .00000716  00000-0  34826-4 0  9995
2 48657  53.1613 358.4583 0001237  93.1477 266.9666 15.31697624279486
Epoch: 2026-06-19T21:34Z
TLE epoch observation values (Epoch: 2026-06-19T21:34:20.741Z)
Latitude
-0°
Longitude
126.75066°
Altitude
471.692 km
Speed
7.631 km/s
True Right ascension
23h 53m 49s
True Declination
0° 00' 00"
Sunlit
Object was in daylight at epoch
Visualization orbit readout
Latitude
Unknown
Longitude
Unknown
Altitude
Unknown
Speed
Unknown
Apparent Right ascension
Unknown
Apparent Declination
Unknown
Sunlit
N/A
Visualization observer readout
Local Sidereal Time
21:35:26
Azimuth
Unknown
Elevation
Unknown
Doppler factor
Unknown
Orbital elements
Apogee altitude
471.851 km
Perigee altitude
470.156 km
Semi-major axis
6,849.14 km
Eccentricity
0.00012
Inclination
53.1613°
RAAN
358.4583°
Arg. of periapsis
93.1477°
True anomaly
266.95245°
Mean anomaly
266.9666°
Eccentric anomaly
266.95952°
Mean motion
3.82903 °/min
Orbital period
94.02 mins
BSTAR
0.000034826
Loading maneuver chart data...
Computing Atmospheric mass density...

Documentation

Showing up to 5 results
|